STARLINK-34368, 64311

Orbit data source: Space-Track

STARLINK-34368, 64311 is a payload satellite owned by SpaceX/Seattle (US) in LEO that was launched on Sun, 08 Jun 2025 UTC via an FALCON 9 launch vehicle from the Air Force Western Test Range (AFWTR). Payload-class satellites include a variety of spacecraft equipped with specific instruments for various scientific and technological missions. These include communications satellites like Starlink; space stations such as the ISS; scientific satellites like the Hubble; Earth observation satellites from companies like Planet Labs, Umbra, and HawkEye 360; GPS; miniature CubeSats for education and research; and military/defense satellites.

Loading next visibility...
Identifier
64311, 2025-123W
Orbit
LEO
Country
Flag of USUS
Related business
Manufacturer
SpaceX/Seattle
Mission
Operational Commercial Communications
Bus & Motor
STARLINK V2MO, Unknown motor
Mass
575 kg wet, ~530 kg dry
Launch date (UTC)
2025-06-08 (10 months ago)
Launch vehicle
FALCON 9
Launch site
Air Force Western Test Range (AFWTR)
Object type
Payload
Rocket body
Debris
Shape & HBR
Box + 2 Pan, 17.7 m
Radar Cross Section
36.964 m², Large (>1 m²)

Expand to show TLE details & history
Last TLE update: 17 hours ago

TLE from 17 hours ago
0 STARLINK-34368
1 64311U 25123W   26093.50995974  .00007154  00000-0  60655-3 0  9998
2 64311  70.0006 131.9792 0002976 263.3589  96.7231 14.98340531 45333
Epoch: 2026-04-03T12:14Z
TLE epoch observation values (Epoch: 2026-04-03T12:14:20.521Z)
Latitude
-0.00007°
Longitude
116.55061°
Altitude
574.69 km
Speed
7.574 km/s
True Right ascension
08h 47m 55s
True Declination
0° 00' 00"
Sunlit
Object was in full shadow at epoch
Visualization orbit readout
Latitude
Unknown
Longitude
Unknown
Altitude
Unknown
Speed
Unknown
Apparent Right ascension
Unknown
Apparent Declination
Unknown
Sunlit
N/A
Visualization observer readout
Local Sidereal Time
11:24:54
Azimuth
Unknown
Elevation
Unknown
Doppler factor
Unknown
Orbital elements
Apogee altitude
572.039 km
Perigee altitude
567.904 km
Semi-major axis
6,948.108 km
Eccentricity
0.0003
Inclination
70.0006°
RAAN
131.9792°
Arg. of periapsis
263.3589°
True anomaly
96.75697°
Mean anomaly
96.7231°
Eccentric anomaly
96.74003°
Mean motion
3.74751 °/min
Orbital period
96.06 mins
BSTAR
0.00060655
Loading maneuver chart data...
Computing Atmospheric mass density...
Loading historical data...
Loading historical data...
Loading historical data...
Loading historical data...
Loading historical data...
Loading historical data...
Loading historical data...

Documentation

Showing up to 5 results
|